Retour au catalogue

BREEZE-M DEB

LostHEO
NORAD 39997·DEBRIS·🇷🇺 Russia

Lancé Mar 14, 2008 depuis Baikonur Cosmodrome

Loading…

Prochains Passages (prochaines 24 heures)

TLE

PériméSource: Space-Track

Époque: Oct 23, 2013, 23:20 UTC

1 39997U 08011DW  13296.97242389  .00000969  00000-0  20000-1 0  9999
2 39997  49.8740 225.8006 6731970 198.3427 112.8608  2.72051466778349

Suivez BREEZE-M DEB en temps réel avec AllMySat

Download on the App Store